Location: Unspecified
(41.1637°N, 24.2901°E)
Time: 15:43:25
(UTC+02:00)

ISS - Pass Details

Date: 02 July 2022
Orbit: 414 x 420 km, 51.6° (Epoch: 05 July)

Event Time Altitude Azimuth Distance (km) Brightness Sun altitude
Rises 04:08:39 0° 283° (WNW) 2,359 -0.3 -7.8°
Reaches altitude 10° 04:11:18 10° 306° (NW) 1,498 -1.1 -7.4°
Maximum altitude 04:13:33 17° 348° (NNW) 1,165 -1.1 -7.1°
Drops below altitude 10° 04:15:48 10° 30° (NNE) 1,503 0.4 -6.7°
Sets 04:18:28 0° 52° (NE) 2,369 3.0 -6.3°
